User: anonymous   Login
Location: Unspecified
(0.0000°N, 0.0000°E)
Time: 02:46:54
(UTC+00:00)
Language:

Uosat F - Orbit

View from above orbital plane
View from above orbital plane
View from above satellite
View from above satellite

Ground track
Ground track

The orbit data is extracted from the following two-line orbital elements,

1 21575U 91050B   17147.59437919 +.00000011 +00000-0 +18055-4 0  9997
2 21575 098.7578 163.5089 0007431 010.9641 349.1708 14.40798239358111
Epoch (UTC): 27 May 2017 14:15:54
Eccentricity: 0.0007431
inclination: 98.7578°
perigee height: 750 km
apogee height: 761 km
right ascension of ascending node: 163.5089°
argument of perigee: 10.9641°
revolutions per day: 14.40798239
mean anomaly at epoch: 349.1708°
orbit number at epoch: 35811

The dashed part of the orbit path shows where the satellite is in the earth's shadow,  

DLR